Regional Weather Roundup
Issued by NWS Grand Forks, ND

Home | Current Version | Previous Version | Graphics & Text | Print | Product List | Glossary On
Versions: 1 2 3 4 5 6 7 8 9 10 11 12 13 14 15 16 17 18 19 20 21 22 23 24 25 26 27 28 29 30 31 32 33 34 35 36 37 38 39 40 41 42 43 44 45 46 47 48 49 50
000
ASUS43 KFGF 080331
RWRFGF
PRAIRIE TO PINES  WEATHER ROUNDUP
NATIONAL WEATHER SERVICE EASTERN NORTH DAKOTA/GRAND FORKS ND
900 PM CST WED DEC 07 2016

 **SATELLITE DATA USED TO AUGMENT SKY COVER AT AUTOMATED STATIONS**
 *****  WEATHER ACROSS EASTERN NORTH DAKOTA  *****

CITY           SKY/WX    TMP DP  RH WIND       PRES   REMARKS
GRAND FORKS    CLOUDY    20  16  84 NW23G31   30.17R BLWGSNOWWCI   3
GRAND FRKS AFB LGT SNOW  19  16  86 N22       30.19R WCI   3
DEVILS LAKE    LGT SNOW  12  10  92 NW22G29   30.26R FOG     WCI  -7
FARGO          LGT SNOW  19  14  81 NW24G30   30.19R WCI   2
WAHPETON ARPT  CLOUDY    14  10  85 NW22G30   30.20R WCI  -4
$$

 ***** WEATHER ACROSS CENTRAL AND WESTERN NORTH DAKOTA  *****

CITY           SKY/WX    TMP DP  RH WIND       PRES   REMARKS
BISMARCK       LGT SNOW   4  -1  80 NW18G24   30.45R WCI -16
MINOT          LGT SNOW   6   1  80 W28G38    30.41R WCI -17
JAMESTOWN      MIX PCPN   8   4  83 NW30G40   30.26R FOG     WCI -15
MINOT AFB      DRIZZLE    5   0  81 NW29      30.39R WCI -19
GARRISON         N/A      3  -1  83 NW28G36   30.41R WCI -21
WILLISTON      CLOUDY     2  -6  69 NW17      30.56R WCI -18
DICKINSON      CLOUDY     0  -6  76 W26       30.42R WCI -25
HETTINGER      PTCLDY     0  -6  76 NW18      30.45R WCI -21
$$

 *****  OTHER AIRPORT OBSERVATIONS IN OUR AREA  *****

CITY           SKY/WX    TMP DP  RH WIND       PRES   REMARKS
WALHALLA       LGT SNOW  18  18 100 NW22G33   30.24R WCI   0
GRAFTON AIRPOR LGT SNOW  19  18  93 NW21G28   30.21R WCI   3
VALLEY CITY AR LGT SNOW   9   7  92 NW30G36   30.25R WCI -14
CANDO          CLOUDY    14   9  79 NW28G36   30.31R WCI  -6
CAVALIER APRT  LGT SNOW  19  18  93 NW22G30   30.22R VSB 1   WCI   3
GWINNER        CLOUDY    14  10  85 NW22G32   30.26R WCI  -4
SHEYENNE NWR     N/A     11   5  77 NW17      29.95S WCI  -6
ROLLA          LGT SNOW   9   7  92 NW35G44   30.28R VSB 3/4 WCI -15
 ***** THE ABOVE OBSERVATIONS ARE NON NWS ARE NOT QUALITY
       CONTROLLED AND MAY MIS-REPORT RAIN FOR SNOW...
$$

  *****  WEATHER ACROSS NORTHERN MINNESOTA  *****

CITY           SKY/WX    TMP DP  RH WIND       PRES   REMARKS
FLAG ISLAND    CLOUDY    21  18  86 N24G30    30.05R WCI   4
WARROAD        CLOUDY    19  16  86 NW12G17   30.07R WCI   7
ROSEAU         LGT SNOW  19  16  86 NW17G23   30.09R WCI   4
HALLOCK          N/A     19  18  93 N24G31    30.16R WCI   2
THF RVR FALLS  FLURRIES  20  17  88 NW17      30.10R WCI   5
BAUDETTE       LGT SNOW  22  17  81 N15G25    29.99R WCI   9
WASKISH        LGT SNOW  21  19  93 NW12      30.00R WCI   9
CROOKSTON      LGT SNOW  21  19  93 N24G32    30.14R WCI   4
STEPHEN NDAWN    N/A     19  18  93 N24         N/A  WCI   2
GREENBUSH NDAW   N/A     19  19 100 N18         N/A  WCI   4
$$
  *****  WEATHER ACROSS CENTRAL AND WEST MINNESOTA  *****

CITY           SKY/WX    TMP DP  RH WIND       PRES   REMARKS
FOSSTON        LGT SNOW  18  16  93 NW15      30.07R WCI   3
BEMIDJI        LGT SNOW  20  18  90 NW15      30.00R WCI   6
PARK RAPIDS    LGT SNOW  18  11  74 NW17      30.01R WCI   3
ELBOW LAKE     LGT SNOW  12  10  91 NW18G26   30.16S WCI  -6
WADENA         MIX PCPN  14  10  85 W12       30.06R WCI   0
DETROIT LAKES  LGT SNOW  19  16  86 NW18G25   30.09R WCI   4
MOORHEAD       MIX PCPN  18  14  86 NW23      30.17R WCI   0
FERGUS FALLS   LGT SNOW  12  10  92 NW21      30.20R WCI  -6
MORRIS MN      LGT SNOW  12  10  92 W24       30.18S VSB 3/4 WCI  -8
STAPLES        FLURRIES  14  10  85 W17       30.05R WCI  -3
$$
  *****  WEATHER ELSEWHERE ACROSS MINNESOTA  *****

CITY           SKY/WX    TMP DP  RH WIND       PRES   REMARKS
DULUTH         LGT SNOW  17  13  84 W17       29.88R FOG     WCI   1
INTRNTL FALLS  LGT SNOW  22  19  89 NW12      29.94R FOG     WCI  10
ELY            LGT SNOW  19  18  93 NW7       29.84R WCI  10
CLOQUET        LGT SNOW  16  12  86 W10       29.92R WCI   3
WHEATON        LGT SNOW  14  12  92 W26G33    30.23S WCI  -6
BRAINERD       LGT SNOW  16  11  80 W13       30.02R WCI   2
HIBBING        LGT SNOW  19  16  88 W7        29.89R FOG     WCI  10
ALEXANDRIA     LGT SNOW  12   8  84 W20G28    30.12R FOG     WCI  -6
SAINT CLOUD    FLURRIES  15   8  73 W18G30    30.09S WCI  -2
MINNEAPOLIS    FLURRIES  16   7  67 W15G28    30.13R WCI   1
$$

  *****  WEATHER ACROSS SOUTH DAKOTA  *****

CITY           SKY/WX    TMP DP  RH WIND       PRES   REMARKS
SIOUX FALLS    PTCLDY    11   3  70 NW18G37   30.32R WCI  -7
BROOKINGS      CLEAR      7   1  76 NW24G35   30.26R WCI -14
WATERTOWN      CLOUDY     6   1  80 W21G30    30.25R WCI -14
HURON          MIX PCPN   8   3  80 NW24G31   30.40S WCI -13
SISSETON         N/A     12   6  77 NW26G36   30.22R WCI  -8
ABERDEEN       LGT SNOW   9   2  73 NW25G36   30.34S WCI -12
MITCHELL       CLEAR     10   2  69 NW22      30.43R WCI -10
PIERRE         MOCLDY     9   1  70 NW31G41   30.45S WCI -14
MOBRIDGE       CLEAR      5  -4  66 NW29      30.40R WCI -19
RAPID CITY     CLEAR      1  -6  72 N9        30.44S WCI -14
$$

  *****  SOME WEATHER IN NEARBY STATES *****

CITY           SKY/WX    TMP DP  RH WIND       PRES   REMARKS
GLASGOW MT     CLEAR     -1  -9  68 W13       30.60R WCI -19
GREAT FALLS MT CLOUDY     0  -6  76 CALM      30.52R
CHEYENNE WY    CLOUDY   -11 -16  78 W7        30.27R WCI -26
SCOTTSBLUFF NE CLEAR      0  -7  72 W9        30.44R WCI -15
OMAHA NE       CLEAR     19   5  54 W17G23    30.42R WCI   4
DES MOINES IA  CLEAR     20   8  60 NW22G30   30.32S WCI   3
DAVENPORT IA   CLOUDY    23  14  68 W20G29    30.23R WCI   8
CHICAGO IL     CLOUDY    23  13  65 W21G32    30.14S WCI   8
EAU CLAIRE WI  CLOUDY    18  10  71 W21       30.05R WCI   1
LA CROSSE WI   CLOUDY    22  12  65 W18G25    30.13R WCI   7
$$

  *****  SOME NATIONAL WEATHER *****

CITY           SKY/WX    TMP DP  RH WIND       PRES   REMARKS
LA GUARDIA NY  CLOUDY    46  35  65 CALM      30.02F
RALEIGH NC     MOCLDY    47  42  83 CALM      30.07F
ATLANTA GA     PTCLDY    47  42  83 NW9       30.11R
NEW ORLEANS LA CLOUDY    59  59 100 NE6       30.16R
OKLAHOMA CITY  CLOUDY    31  20  63 N16       30.40R WCI  20
ALBUQUERQUE NM CLOUDY    38  17  42 N6        30.18R
SALT LAKE CITY CLEAR     22  11  62 SE5       30.32S WCI  16
LOS ANGELES CA MOCLDY    58  51  78 NW5       30.13R
BOISE ID       CLEAR     20  13  74 SE8       30.36S WCI  10
SEATTLE WA     CLEAR     32  16  51 NE15      30.32F WCI  22
$$

*** WEATHER ACROSS MANITOBA...SASKATCHEWAN AND ONTARIO ***
                ***ONTARIO***

CITY           SKY/WX    TMP DP  RH WIND       PRES   REMARKS
GERALDTON      LGT SNOW  23  19  86 N13       29.63R DRFTSNOWWCI  11
THUNDER BAY    FLURRIES  25  21  86 W10       29.76R WCI  15
SIOUX LOOKOUT  LGT SNOW  21  18  86 N9G20     29.89R DRFTSNOWWCI  11
TORONTO        PTCLDY    32  25  74 W12       29.92F WCI  23
BIG TROUT LK   FLURRIES  19  18  93 N17G28    29.97R WCI   4
PICKLE LAKE    NOT AVBL
DRYDEN         LGT SNOW  19  18  93 N7        29.93R WCI  10
KENORA         LGT SNOW  18  16  93 N13       30.02R DRFTSNOWWCI   4
$$
                *** MANITOBA***

CITY           SKY/WX    TMP DP  RH WIND       PRES   REMARKS
BRANDON        MOCLDY    10   5  79 NW23      30.34R WCI -10
DAUPHIN        FLURRIES  14   9  79 N13       30.40R WCI   0
ISLAND LAKE    NOT AVBL
PILOT MOUND      N/A     12  10  92 NW18G24     N/A  WCI  -5
THE PAS        FLURRIES  10   3  72 N15G21    30.48R WCI  -6
THOMPSON       PTCLDY   -11 -17  77 NW8       30.47R WCI -28
WINNIPEG       FLURRIES  18  14  86 NW25      30.20R WCI  -1
LYNN LAKE      MOCLDY   -13 -17  84 N7        30.53R WCI -29
CHURCHILL      SNOW       5   3  92 NW31G41   30.41R VSB 1/8 WCI -19
GILLAM         FLURRIES  -2  -8  78 NW9G18    30.37R WCI -18
$$
                ***SASKATCHEWAN***

CITY           SKY/WX    TMP DP  RH WIND       PRES   REMARKS
ESTEVAN        LGT SNOW   3   0  85 NW25G32   30.47R BLWGSNOWWCI -20
KINDERSLEY     PTCLDY    -9 -15  77 W5        30.60S WCI -21
LLOYDMINSTER   PTCLDY    -8 -13  77 NW8       30.63S WCI -23
PRINCE ALBERT  FLURRIES   0  -8  71 NW9       30.60R WCI -16
REGINA         CLOUDY     3  -2  78 NW17      30.53R WCI -17
YORKTON        FLURRIES   7   1  78 NW13G20   30.45R WCI  -9
N. BATTLEFORD  PTCLDY    -2  -8  78 NW15      30.64R WCI -22
LA RONGE       PTCLDY    -6 -13  71 NW7       30.64R WCI -20
SASKATOON      PTCLDY    -2  -6  84 NW9       30.62R WCI -18
SWIFT CURRENT  PTCLDY    -8 -11  84 W14       30.53R WCI -28
$$
NOTE: THESE ARE AUTOMATED STATIONS WITH LIMITED QUALITY CONTROL
      "FAIR" INDICATES FEW OR NO CLOUDS BELOW 12,000 FEET WITH NO
      SIGNIFICANT WEATHER AND/OR OBSTRUCTIONS TO VISIBILITY.
      SKY/WX - SKY CONDITION AND SIGNIFICANT WEATHER.
      TMP - AIR TEMPERATURE.    DP   - DEWPOINT TEMPERATURE.
      RH  - RELATIVE HUMIDITY.  PRES - PRESSURE.
      HX  - HEAT INDEX.         WCI  - WIND CHILL INDEX.
$




USA.gov is the U.S. government's official web portal to all federal, state and local government web resources and services.